CDT,Max TemperatureF,Mean TemperatureF,Min TemperatureF,Max Dew PointF,MeanDew PointF,Min DewpointF,Max Humidity, Mean Humidity, Min Humidity, Max Sea Level PressureIn, Mean Sea Level PressureIn, Min Sea Level PressureIn, Max VisibilityMiles, Mean VisibilityMiles, Min VisibilityMiles, Max Wind SpeedMPH, Mean Wind SpeedMPH, Max Gust SpeedMPH,PrecipitationIn, CloudCover, Events, WindDirDegrees
2012-9-1,95,79,63,65,61,57,93,62,30,30.03,29.96,29.89,10,10,6,13,5,17,0.00,0,,126
2012-9-2,99,82,65,64,62,60,87,58,29,29.94,29.86,29.78,10,10,10,20,10,25,0.00,0,,171
2012-9-3,94,81,67,67,61,57,84,57,30,29.95,29.85,29.80,10,10,10,22,8,29,0.01,2,Rain-Thunderstorm,149
2012-9-4,102,82,61,68,59,47,100,59,17,29.90,29.77,29.63,10,8,2,23,8,31,0.00,0,,159
2012-9-5,83,67,50,56,48,35,78,49,20,29.97,29.86,29.69,10,10,10,22,10,28,0.00,0,,309
2012-9-6,93,70,46,58,46,40,77,49,21,30.00,29.86,29.71,10,10,10,25,10,36,0.00,0,,167
2012-9-7,76,63,49,55,47,40,86,58,29,30.15,30.01,29.77,10,10,10,24,12,31,0.04,2,Rain,343
2012-9-8,87,65,42,42,38,32,83,49,15,30.18,30.09,29.95,10,10,10,26,12,39,0.00,0,,295
2012-9-9,77,59,40,42,38,32,73,49,24,30.25,30.17,30.09,10,10,10,13,5,15,0.00,0,,213
2012-9-10,91,73,54,46,44,42,66,43,19,30.07,29.92,29.78,10,10,10,32,17,44,0.00,0,,175
2012-9-11,99,82,64,47,44,42,45,31,16,29.81,29.77,29.71,10,10,10,28,16,37,0.00,0,,181
2012-9-12,76,65,53,52,46,31,93,62,31,30.32,30.13,29.84,10,8,2,21,12,36,0.56,6,Rain,31
2012-9-13,74,60,45,52,46,35,100,63,25,30.41,30.36,30.32,10,6,0,15,5,18,0.00,1,Fog,251
2012-9-14,84,67,50,44,41,32,68,42,16,30.34,30.28,30.19,10,10,10,17,8,22,0.00,0,,222
2012-9-15,83,67,51,55,41,34,73,45,17,30.22,30.13,30.01,10,10,10,21,12,26,0.00,0,,190
2012-9-16,83,70,56,57,55,50,93,63,33,30.01,29.95,29.85,10,10,6,17,10,26,0.00,2,,198
2012-9-17,70,55,40,53,41,32,93,59,25,30.10,30.00,29.89,10,10,10,24,11,29,T,2,Rain,356
2012-9-18,74,55,35,42,35,31,89,56,22,30.12,30.03,29.88,10,10,10,18,6,24,0.00,1,,200
2012-9-19,87,66,45,46,38,30,86,52,17,30.00,29.87,29.78,10,10,10,32,10,39,0.00,0,,301
2012-9-20,74,59,44,39,35,30,65,44,22,30.07,30.01,29.91,10,10,10,17,4,22,T,1,,259
2012-9-21,76,62,48,39,34,28,66,43,19,29.99,29.89,29.83,10,10,10,30,13,37,0.00,0,,306
2012-9-22,63,48,32,32,24,16,75,46,16,30.33,30.23,30.01,10,10,10,15,7,21,0.00,0,,348
2012-9-23,71,51,30,31,26,23,85,52,18,30.38,30.27,30.17,10,10,10,14,6,18,0.00,0,,143
2012-9-24,74,61,48,42,37,32,74,52,29,30.15,29.98,29.84,10,10,10,17,7,23,0.00,0,,196
2012-9-25,84,63,42,47,39,30,92,54,15,29.91,29.86,29.83,10,10,7,9,3,12,0.00,0,,319
2012-9-26,78,60,41,35,32,27,56,37,18,30.16,30.06,29.93,10,10,10,15,5,21,0.00,0,,48
2012-9-27,78,56,34,32,30,28,76,46,16,30.23,30.17,30.11,10,10,9,10,2,14,0.00,0,,120
2012-9-28,80,59,37,35,29,23,76,44,12,30.19,30.15,30.09,10,10,7,9,2,14,0.00,0,,105
2012-9-29,81,59,36,44,34,27,76,47,17,30.18,30.11,30.03,10,10,10,13,3,17,0.00,0,,175
2012-9-30,82,62,41,43,37,34,79,49,18,30.03,29.97,29.91,10,10,10,13,3,17,0.00,0,,166